Temp
73 75 75 75 75 77 73 73 64 68 68 73 79 78 80 82 83 87 86 85 83 91 90 90 89 87 88 88 88 87 84 83 82 82 82 82 81 80 81 79 80 77 75 74
64 75 76 73 77 77 78 77 75 74 71 74 78 83 81 83 90 82 86 87 84 84 87 87 87 86 87 87 88 88 85 83 83 82 81 81 80 80 79 80 79 76 74 73
56 67 65 60 73 75 76 79 77 69 74 77 77 77 82 83 83 92 90 86 85 84 84 83 87 89 87 87 89 87 86 84 83 82 81 80 80 80 78 79 78 75 74 73
53 59 51 64 78 81 77 78 78 78 77 77 77 78 80 81 85 82 85 89 85 89 83 82 83 89 90 89 87 85 84 83 83 82 81 80 80 79 79 80 75 74 74 74
53 54 58 68 74 72 69 71 78 75 78 80 81 79 78 84 86 86 91 88 86 84 87 86 84 88 87 87 85 85 82 82 82 82 81 80 80 79 78 76 76 74 71 70
51 50 51 62 76 83 78 60 75 77 77 78 77 65 67 75 81 82 85 87 86 88 87 83 83 87 86 86 85 83 85 83 84 83 82 80 80 78 76 75 74 72 71 72
52 51 57 69 80 84 62 62 73 76 74 74 70 71 76 77 80 79 80 84 86 85 85 81 81 86 84 85 85 85 85 82 82 83 81 80 78 78 76 73 72 71 71 72
55 50 49 72 75 66 66 72 74 75 75 74 75 78 79 78 78 79 79 81 81 79 80 82 79 84 82 82 83 80 81 81 79 79 80 78 76 74 73 73 71 69 69 67
54 56 64 68 69 69 71 71 73 73 75 77 76 74 77 75 77 80 80 80 81 78 76 77 77 82 81 77 81 81 79 78 78 78 77 76 72 71 70 69 68 66 67 66
53 56 56 71 67 68 76 76 78 75 75 76 72 74 72 74 74 76 76 76 76 75 74 75 76 77 78 79 80 79 76 76 73 73 72 71 70 71 70 70 69 67 67 66
52 55 57 64 59 71 76 76 74 75 76 74 73 71 71 70 71 73 73 74 74 74 74 74 76 76 78 79 78 76 75 71 70 69 64 59 56 63 67 60 64 69 68 67
47 53 54 55 57 61 69 71 71 71 71 73 72 71 71 69 70 71 71 71 71 72 73 73 75 75 75 74 73 71 69 69 66 65 63 61 60 55 47 48 46 48 51 60
53 57 55 57 58 59 60 69 72 72 72 70 71 71 70 67 68 65 69 69 69 69 70 70 70 69 73 72 70 70 69 67 66 65 66 64 62 60 56 53 47 45 45 48
58 59 54 54 53 57 62 71 70 71 70 70 71 70 69 67 68 69 68 70 69 69 69 71 71 69 71 71 73 70 70 64 72 70 69 67 65 62 60 58 57 54 46 47
55 57 54 55 57 56 59 65 64 65 67 67 68 67 67 64 64 65 70 71 71 69 69 71 71 70 71 73 73 72 72 72 71 72 71 68 68 64 62 62 57 52 50 49
54 56 58 57 56 57 57 58 60 62 64 63 64 64 65 65 64 65 68 68 66 65 68 70 69 68 69 68 70 69 68 67 67 70 70 70 68 65 65 62 57 55 54 52
53 53 56 56 57 57 57 58 57 58 60 60 62 64 65 64 63 64 65 66 68 66 66 67 67 72 70 68 68 67 68 67 67 67 67 68 68 69 70 65 62 59 59 57
52 54 55 56 57 58 59 60 59 58 58 61 64 64 63 62 60 63 64 65 65 65 64 64 65 66 65 64 65 66 67 66 67 70 70 68 69 67 70 68 65 64 61 57
56 57 59 61 61 59 59 60 61 60 61 62 62 63 64 62 62 65 65 65 64 63 63 64 65 64 64 65 64 63 63 64 66 67 65 62 61 61 63 61 62 62 64 60
59 62 62 63 64 61 59 60 59 60 62 62 61 61 61 63 63 62 62 61 63 63 65 65 66 64 64 66 67 63 63 64 63 62 61 60 61 62 62 59 63 64 62 61
62 64 64 63 61 62 63 63 63 61 62 64 63 60 59 62 64 62 60 57 60 62 60 61 60 60 60 63 63 63 64 63 64 62 61 61 62 63 63 65 64 63 60 61
64 63 64 63 62 62 64 64 64 64 63 62 63 62 61 61 64 65 64 62 62 62 65 61 60 60 61 65 64 66 67 66 65 67 66 64 62 62 64 62 64 65 61 60
61 61 61 61 62 62 63 63 63 63 62 63 63 63 61 60 62 61 60 63 63 62 64 64 61 59 60 64 64 69 71 71 69 68 65 63 62 63 62 61 61 63 62 60
60 61 61 63 64 63 62 62 62 63 64 64 65 65 62 61 61 63 62 61 60 62 62 62 62 60 58 62 64 65 66 66 65 64 63 59 62 62 62 61 60 60 60 59
61 62 64 63 61 61 60 63 64 64 65 62 64 63 65 65 63 63 65 65 60 61 63 59 59 59 60 62 66 64 63 63 63 63 62 62 61 61 61 61 63 62 63 63
59 61 63 60 62 63 64 64 62 62 63 62 63 64 64 65 64 64 64 62 66 63 65 64 61 62 62 63 66 65 63 62 62 61 61 61 62 61 62 62 62 62 65 66
61 58 62 61 62 62 62 59 60 60 59 59 59 62 64 65 64 63 61 63 64 62 65 62 61 61 62 60 60 61 61 61 54 60 62 61 60 59 61 58 58 58 56 55
MSLP
988.71 989.03 988.86 988.83 988.84 989.03 989.50 990.47 991.30 992.01 991.75 991.39 991.20 991.25 991.12 990.67 990.92 991.24 992.03 991.64 991.74 992.28 993.40 994.41 995.54 996.45 997.20 998.07 999.09 1000.04 1001.16 1002.06 1002.77 1003.79 1004.54 1005.48 1006.26 1006.94 1007.66 1008.34 1008.75 1009.45 1010.23 1010.93
988.47 988.48 988.52 988.22 987.77 987.96 988.18 989.01 989.48 990.24 990.11 990.51 990.49 990.77 990.43 990.71 990.36 991.11 991.76 991.38 991.88 992.19 992.95 993.99 994.94 995.93 996.25 997.16 998.12 999.09 1000.01 1000.73 1001.85 1002.75 1003.67 1004.49 1005.35 1006.04 1006.79 1007.52 1008.22 1008.96 1009.66 1010.40
988.92 988.64 988.83 988.37 986.37 987.23 987.51 987.58 988.32 988.66 989.70 989.98 990.14 990.23 990.60 990.07 990.71 989.53 990.74 991.65 991.74 991.97 992.41 993.14 993.85 994.46 995.18 995.85 996.97 998.13 998.90 999.98 1000.87 1001.73 1002.50 1003.48 1004.44 1005.29 1006.03 1006.76 1007.62 1008.44 1009.34 1010.28
989.43 989.20 988.83 986.68 986.19 986.51 987.15 987.26 987.33 987.73 988.48 988.93 989.22 989.35 990.01 989.60 989.41 989.85 990.24 990.51 991.36 991.11 991.72 992.28 992.79 993.60 994.05 995.05 996.16 997.08 998.07 998.97 999.89 1000.72 1001.61 1002.72 1003.68 1004.48 1005.43 1006.33 1007.21 1008.18 1009.11 1009.79
989.96 989.18 987.80 987.14 986.78 986.45 986.69 987.16 987.21 987.58 987.68 987.90 988.29 988.76 988.97 989.08 989.40 989.20 989.48 990.08 990.26 990.91 990.93 991.57 992.33 992.75 993.76 994.60 995.28 996.20 997.21 997.98 998.79 999.81 1000.82 1001.85 1002.84 1003.86 1004.86 1005.93 1006.91 1007.76 1008.52 1009.41
990.05 989.41 987.79 987.21 987.14 986.51 986.86 987.49 987.05 987.11 987.42 987.68 987.85 988.89 989.35 989.21 989.26 989.48 989.20 989.48 990.18 990.33 990.51 991.26 991.78 992.22 992.97 993.88 994.81 995.58 996.22 996.79 997.79 998.90 999.98 1001.07 1002.22 1003.34 1004.35 1005.18 1006.27 1007.38 1008.18 1008.55
990.15 989.60 988.36 987.39 987.44 987.01 987.80 988.35 987.73 987.39 987.83 988.13 988.72 989.16 989.20 988.85 988.79 988.84 989.10 989.05 988.83 989.51 990.28 990.90 991.26 991.95 992.57 993.24 993.81 994.45 995.52 996.54 997.42 998.39 999.47 1000.54 1001.77 1002.94 1004.07 1005.13 1005.94 1006.58 1007.33 1007.74
991.87 990.48 989.55 988.32 987.85 988.55 988.73 988.14 988.35 987.97 988.19 988.36 988.71 988.89 988.99 989.03 989.11 989.22 989.30 989.46 989.31 989.71 990.15 990.09 990.45 991.48 992.16 992.79 992.85 994.22 995.39 996.69 997.55 998.35 999.41 1000.50 1001.65 1003.07 1004.09 1004.79 1005.76 1006.86 1007.85 1008.46
994.05 991.37 990.25 989.53 989.36 989.32 989.31 988.49 988.83 988.84 988.45 988.72 988.90 989.11 989.51 989.88 989.93 989.97 990.11 990.05 989.97 990.22 990.37 990.49 990.47 990.68 991.58 992.37 992.90 993.91 995.43 996.87 997.93 998.82 999.77 1000.79 1002.02 1003.25 1004.34 1005.21 1006.13 1007.32 1008.11 1008.91
995.44 993.00 991.60 990.41 990.89 990.60 989.27 989.38 989.64 989.76 989.34 989.27 989.86 989.99 990.50 990.60 990.83 991.05 991.04 990.93 990.82 991.01 991.09 991.37 991.50 991.28 991.45 992.42 993.10 994.02 995.84 997.27 998.34 999.37 1000.62 1001.63 1002.65 1003.59 1004.50 1005.45 1006.34 1006.90 1007.32 1008.24
996.70 995.34 993.55 993.03 993.20 991.62 990.74 990.27 990.60 990.61 990.48 990.53 990.41 991.17 991.46 991.84 991.97 992.04 992.20 992.21 991.96 991.96 992.21 992.25 991.91 992.22 992.16 992.45 993.45 995.03 996.69 998.09 999.15 1000.20 1001.26 1002.48 1003.59 1004.45 1004.83 1005.80 1006.31 1006.77 1006.71 1006.84
999.07 998.20 997.69 997.15 996.08 994.37 991.83 991.43 991.89 992.11 991.71 992.15 991.99 992.37 992.51 993.09 993.32 993.15 993.48 993.47 993.43 993.22 992.95 992.87 992.77 992.99 993.29 993.89 994.76 996.07 997.40 998.75 999.82 1000.79 1001.63 1002.62 1003.92 1005.45 1006.18 1006.42 1006.11 1006.57 1007.37 1006.60
999.67 999.46 999.31 998.13 996.34 995.73 995.45 993.38 992.78 992.51 992.96 992.99 993.33 993.49 993.49 994.03 994.25 994.04 994.21 994.49 994.52 994.47 994.30 994.01 993.66 994.43 994.26 994.99 995.97 996.86 998.01 999.47 999.97 1000.79 1002.23 1003.12 1004.49 1005.14 1006.03 1006.93 1007.41 1007.30 1007.52 1008.35
999.54 999.31 998.87 998.80 999.21 998.70 997.53 995.42 994.04 994.15 994.32 994.59 994.72 994.78 994.84 994.85 995.09 995.29 995.29 995.22 995.27 995.36 995.28 995.09 995.07 995.44 995.70 996.10 996.65 997.09 998.52 998.83 999.81 1001.30 1002.13 1003.59 1004.17 1005.71 1006.06 1006.17 1008.50 1009.08 1009.07 1009.34
1000.04 999.75 999.75 999.64 999.36 998.89 998.87 998.68 996.03 996.53 996.38 996.18 996.00 996.20 995.97 996.19 996.49 996.58 995.79 995.88 995.85 995.55 994.28 995.28 995.82 995.46 996.09 996.66 997.17 997.73 998.80 999.73 999.96 1001.11 1002.10 1003.01 1003.75 1005.22 1005.67 1007.45 1008.12 1008.97 1009.51 1010.24
1000.67 1000.40 999.98 999.92 1000.42 1000.66 1000.88 1000.16 999.14 998.04 998.26 997.46 997.33 997.23 997.17 997.25 997.36 997.34 997.26 997.04 996.43 996.90 997.01 996.95 996.95 997.42 997.46 998.03 998.76 999.43 999.48 999.80 1000.23 1001.02 1002.09 1002.66 1003.43 1004.18 1006.03 1007.03 1007.50 1008.49 1009.32 1009.99
1000.86 1000.90 1000.75 1000.76 1001.01 1001.08 1001.13 1000.37 999.64 999.70 999.21 998.84 998.15 997.97 997.98 998.24 998.24 998.22 998.50 998.22 997.81 997.81 997.88 997.97 998.12 998.10 998.66 999.24 999.65 1000.45 1000.55 1000.50 1000.80 1001.34 1001.87 1002.14 1002.90 1004.04 1005.02 1006.19 1006.85 1007.72 1008.50 1009.07
1001.59 1001.39 1001.16 1001.15 1001.23 1001.03 1000.88 1000.82 1000.75 1000.35 999.99 999.51 999.12 998.96 999.23 999.58 999.58 999.25 999.28 999.51 999.36 999.62 999.75 999.89 999.53 999.53 1000.04 1000.66 1000.84 1000.86 1001.00 1001.34 1001.44 1001.35 1001.69 1002.43 1003.14 1003.76 1004.64 1005.35 1006.11 1006.74 1007.91 1008.59
1002.66 1001.90 1001.95 1001.80 1001.47 1001.41 1001.42 1001.30 1000.94 1000.51 1000.27 999.91 999.31 999.82 1000.07 1000.16 1000.18 999.83 1000.00 1000.64 1000.73 1000.66 1000.73 1000.66 1000.78 1000.73 1000.87 1000.74 1001.04 1001.71 1001.98 1002.68 1002.74 1002.28 1002.42 1003.55 1003.96 1003.76 1004.36 1005.07 1005.54 1006.34 1007.10 1008.06
1001.83 1001.46 1001.18 1001.31 1001.26 1001.41 1001.33 1001.22 1001.08 1000.83 1000.60 1000.52 1000.33 1000.84 1000.97 1000.76 1000.58 1000.40 1000.91 1001.60 1001.75 1001.70 1001.48 1001.48 1001.33 1001.26 1001.26 1000.79 1001.18 1002.39 1003.15 1003.81 1003.94 1003.61 1003.18 1003.70 1003.88 1004.02 1004.42 1005.18 1005.47 1006.00 1006.59 1007.24
1001.66 1001.51 1001.71 1001.79 1001.81 1001.74 1001.67 1001.65 1001.58 1001.56 1001.36 1001.20 1001.22 1001.60 1001.68 1001.75 1001.63 1001.67 1001.83 1002.53 1002.52 1002.56 1002.82 1002.52 1002.21 1002.08 1002.06 1001.84 1002.14 1002.50 1003.09 1003.42 1003.52 1002.98 1003.21 1003.56 1003.62 1003.93 1004.36 1004.86 1005.36 1005.66 1006.08 1006.75
1002.17 1002.09 1002.12 1002.26 1002.25 1002.12 1001.93 1001.94 1001.89 1001.97 1001.98 1001.91 1001.97 1002.01 1002.16 1002.03 1002.09 1002.27 1002.34 1002.48 1002.55 1002.30 1002.62 1002.66 1002.63 1002.52 1002.28 1001.92 1002.11 1001.78 1002.30 1002.47 1002.39 1002.44 1002.85 1003.39 1003.66 1004.05 1004.29 1004.43 1004.96 1005.27 1005.74 1006.23
1003.02 1002.75 1002.84 1002.72 1002.62 1002.58 1002.48 1002.34 1002.33 1002.54 1002.52 1002.47 1002.61 1002.48 1002.66 1002.46 1002.48 1002.72 1003.01 1002.98 1002.88 1002.76 1002.94 1003.09 1002.80 1002.81 1002.76 1002.61 1002.45 1002.11 1002.07 1002.31 1002.45 1002.64 1003.04 1003.42 1003.58 1003.91 1004.11 1004.26 1004.72 1005.02 1005.33 1005.74
1003.77 1003.71 1003.49 1003.09 1003.07 1002.99 1003.10 1003.07 1003.17 1003.10 1003.03 1002.90 1002.89 1002.72 1002.90 1002.76 1003.04 1002.92 1002.95 1003.15 1003.20 1003.07 1002.97 1003.04 1003.10 1003.01 1003.29 1003.24 1002.84 1002.59 1002.35 1002.40 1002.66 1002.98 1003.11 1003.40 1003.51 1003.60 1003.78 1004.20 1004.38 1004.49 1004.87 1005.00
1004.41 1004.56 1004.36 1004.28 1004.20 1004.18 1004.08 1004.08 1003.89 1003.75 1003.68 1003.60 1003.53 1003.23 1003.14 1003.11 1003.19 1003.02 1002.91 1002.97 1003.07 1003.19 1003.05 1003.17 1003.30 1003.72 1003.78 1003.43 1003.23 1002.72 1002.57 1002.74 1002.73 1002.94 1003.38 1003.64 1003.64 1003.82 1003.93 1003.98 1004.22 1004.22 1004.32 1004.52
1005.12 1005.20 1005.28 1005.37 1005.53 1005.34 1005.18 1004.91 1004.74 1004.89 1004.55 1004.54 1004.41 1004.16 1004.01 1003.57 1003.44 1003.28 1003.27 1003.29 1003.54 1003.79 1003.72 1003.78 1004.01 1004.00 1004.03 1004.00 1003.88 1003.84 1003.65 1003.68 1003.71 1003.63 1003.76 1003.95 1003.88 1004.04 1003.84 1003.40 1003.49 1003.84 1004.18 1004.27
1006.11 1006.23 1006.45 1006.50 1006.43 1006.27 1006.04 1005.97 1005.70 1005.59 1005.39 1005.44 1005.24 1004.72 1004.51 1004.44 1004.50 1004.28 1004.05 1003.93 1004.02 1003.91 1003.93 1004.46 1004.41 1004.32 1004.49 1004.84 1004.62 1004.62 1004.61 1004.80 1004.81 1004.70 1004.83 1004.91 1004.89 1004.81 1004.95 1005.18 1005.36 1005.51 1005.68 1005.68
Wind_Speed
27 16 16 25 14 26 25 20 18 14 16 14 14 11 11 10 7 8 8 9 9 18 17 21 20 19 21 21 22 22 21 21 21 18 17 17 16 16 17 12 14 13 13 11
10 20 27 22 19 23 26 24 21 16 17 5 8 7 8 8 20 6 6 9 7 10 17 17 16 16 20 21 21 21 21 22 19 18 17 17 16 15 15 15 13 11 12 12
10 8 4 12 29 22 13 18 20 20 12 7 9 4 9 11 14 18 13 9 11 11 12 12 18 21 21 22 20 21 21 18 19 18 18 18 16 15 14 16 11 12 11 10
6 8 11 5 10 18 15 11 10 12 13 11 11 8 8 5 9 2 6 10 10 13 8 9 10 16 20 19 21 20 20 19 18 18 18 17 16 16 13 12 10 10 9 10
7 9 3 7 9 4 7 13 8 5 9 10 9 6 7 10 9 10 14 6 5 6 6 10 11 15 17 18 19 20 18 20 19 19 18 17 17 15 11 10 10 9 8 8
3 8 20 4 5 11 6 7 3 3 7 9 5 3 5 3 4 6 10 8 12 8 5 8 9 14 17 18 16 18 19 19 18 17 18 17 16 14 10 12 11 10 11 12
3 4 3 3 10 12 7 8 5 9 8 10 6 5 5 2 5 2 7 10 10 10 9 11 9 13 16 17 19 17 13 11 14 15 16 16 15 12 12 12 12 13 13 12
6 4 5 3 3 3 4 6 6 7 6 8 6 6 6 9 9 9 9 9 6 5 6 6 11 15 15 16 13 11 12 12 13 15 13 12 15 11 10 10 9 7 4 1
6 3 3 7 7 0 1 7 5 4 1 5 4 2 7 8 9 7 7 5 5 5 8 6 5 10 14 11 14 15 16 15 14 13 13 13 12 11 9 9 8 6 5 4
9 13 19 5 6 6 7 7 7 9 12 14 14 14 10 10 8 8 7 8 6 7 8 7 6 9 13 12 15 17 17 15 13 14 12 10 8 8 9 8 7 8 8 6
7 12 20 18 23 10 5 14 15 13 13 13 16 13 11 10 11 8 8 8 6 7 6 7 11 12 13 17 19 18 16 13 13 11 11 10 8 5 7 4 2 6 6 6
3 11 5 9 16 30 12 16 14 11 15 15 14 11 12 11 8 10 8 7 8 7 8 7 11 13 14 14 15 16 15 11 9 10 8 9 9 8 18 10 9 8 1 8
3 2 3 5 19 26 22 5 9 14 11 12 12 11 13 7 6 8 9 8 7 6 6 7 8 4 11 13 11 13 13 11 9 10 7 8 7 8 11 7 16 16 14 10
7 5 8 17 8 17 22 9 18 19 17 14 12 12 13 11 8 8 6 6 6 4 4 6 8 10 10 11 13 13 11 20 10 8 9 8 7 6 6 8 4 2 13 9
5 8 10 9 15 18 19 16 20 15 13 12 11 13 14 14 12 11 3 6 6 8 2 10 11 9 7 10 12 12 10 8 9 9 8 9 8 8 8 7 6 6 4 7
10 8 8 12 8 5 4 11 11 15 12 10 10 9 10 10 10 11 11 7 5 7 6 9 12 10 11 9 9 5 5 11 7 9 9 10 9 9 8 7 7 7 6 5
7 8 9 10 7 6 4 2 7 7 11 13 8 9 9 9 9 11 10 9 9 9 7 10 8 11 12 12 8 3 5 4 8 6 5 6 8 9 11 9 9 9 8 8
7 8 9 7 4 4 6 6 7 7 8 9 10 9 9 8 6 7 8 8 10 10 10 8 6 8 11 9 8 8 5 4 3 4 4 5 3 2 12 12 10 9 7 7
5 6 5 4 3 6 7 7 4 2 4 6 11 10 5 5 5 7 8 7 7 6 4 5 6 8 7 10 12 8 10 10 7 4 7 5 4 4 6 6 7 6 9 8
5 2 7 3 5 10 9 8 8 7 5 3 7 7 7 6 6 8 8 6 4 2 6 6 3 3 4 7 10 5 4 8 6 4 4 3 5 5 5 2 4 7 7 8
8 10 12 9 7 7 6 6 6 8 8 8 7 7 4 6 5 5 9 5 4 7 8 6 6 5 6 4 1 4 10 6 7 5 5 4 5 4 4 4 5 6 5 7
8 7 6 7 5 5 6 6 6 7 8 8 8 7 7 7 8 11 7 6 3 10 6 4 4 7 6 8 4 2 4 7 5 4 4 4 5 5 4 6 6 8 6 6
7 7 10 8 6 4 5 6 7 7 7 6 5 5 4 2 4 6 5 5 4 7 5 4 7 12 13 6 5 5 5 4 4 4 5 5 5 5 4 5 5 5 5 6
7 8 7 8 8 7 6 7 7 6 4 5 5 3 3 2 2 3 5 5 7 5 3 3 6 10 8 5 5 5 4 4 5 6 4 3 3 5 6 6 5 5 5 5
7 10 10 13 8 6 9 3 6 9 7 8 9 7 7 3 4 1 3 3 3 3 2 5 1 6 5 5 8 6 3 3 3 4 4 3 3 3 3 4 4 4 3 5
8 6 8 11 10 9 9 8 4 4 4 5 5 6 6 4 4 4 4 6 6 6 7 4 4 4 5 6 7 7 7 8 8 6 8 7 7 6 5 1 1 2 2 4
7 11 8 8 8 7 6 5 7 5 6 6 5 6 6 7 8 8 9 6 5 5 7 5 4 6 7 5 5 7 9 7 8 7 8 8 8 8 9 10 9 8 8 8
Wind_Direction
214 211 221 240 236 205 210 208 210 232 228 231 240 202 221 177 184 223 235 190 152 168 168 176 180 181 184 186 186 182 185 189 191 191 194 196 197 194 200 193 194 184 182 184
194 206 221 242 240 240 214 214 229 233 249 183 253 221 188 212 190 161 217 152 189 153 166 172 175 185 182 185 188 186 187 193 188 189 188 193 194 195 194 200 197 177 178 175
205 156 237 263 236 245 251 218 206 219 221 233 260 234 227 228 220 187 214 208 186 188 176 168 180 187 184 186 183 186 193 189 190 189 189 191 189 191 190 194 185 176 171 163
151 125 210 230 202 224 239 261 224 206 197 202 204 219 167 200 171 277 261 215 204 183 183 182 173 184 187 178 183 187 191 191 189 190 189 185 187 188 182 183 167 163 157 169
159 196 303 285 271 225 205 255 243 241 214 189 202 187 238 174 177 183 244 206 173 198 189 179 167 173 176 178 182 185 186 189 188 187 184 183 185 178 164 155 153 158 161 157
167 184 219 105 255 270 323 276 354 186 215 213 160 134 272 34 106 214 191 187 174 236 178 180 195 166 167 179 178 187 192 189 181 180 178 176 171 162 143 150 152 147 167 176
160 202 269 194 221 276 249 249 48 79 75 70 86 165 196 7 345 307 199 204 194 197 187 188 187 165 171 178 184 189 185 159 163 167 163 159 149 144 146 156 159 172 176 183
204 160 236 57 338 62 214 86 50 54 73 85 80 48 18 51 50 63 63 33 31 152 175 197 167 166 174 180 176 137 133 138 139 140 142 140 133 136 158 155 151 148 155 112
329 161 309 23 119 69 72 84 65 352 101 107 106 107 81 77 55 48 55 48 42 94 78 36 132 164 163 159 134 129 124 130 131 126 129 131 127 130 126 119 120 109 111 127
328 5 343 219 140 294 58 62 40 40 50 78 76 65 52 53 37 64 45 35 69 83 98 97 82 103 119 120 119 118 119 122 116 113 113 111 115 115 114 119 128 146 154 165
278 5 343 8 350 284 171 91 70 47 56 66 78 63 69 55 43 51 50 25 44 83 72 83 102 105 113 121 119 116 113 112 113 110 111 101 74 79 116 67 117 176 183 142
331 325 296 324 336 359 45 85 88 72 64 55 59 69 65 59 51 62 55 49 46 42 77 90 100 105 101 95 114 119 119 124 129 130 122 117 112 86 41 54 65 47 125 120
290 55 155 300 21 4 353 62 94 84 70 58 52 54 53 56 57 63 64 50 42 53 50 47 77 79 96 103 111 123 121 118 110 111 115 112 115 124 118 72 59 60 58 81
241 262 28 38 16 20 351 21 66 61 56 46 56 47 47 51 38 45 80 88 100 76 107 93 83 74 105 104 104 95 96 131 116 124 125 132 121 122 113 100 108 36 37 64
100 77 105 109 45 24 1 348 46 44 42 44 45 53 50 45 32 15 49 77 86 85 73 79 91 87 57 100 103 109 127 138 128 138 143 143 132 140 119 125 126 118 101 68
125 127 110 88 89 67 343 348 26 42 31 24 38 40 54 47 39 27 20 36 61 70 69 75 72 58 57 43 63 88 121 135 135 139 149 151 148 129 146 148 133 143 153 164
106 111 110 99 101 91 73 22 26 26 42 25 32 29 55 48 40 46 31 27 37 47 45 54 46 72 69 45 38 51 69 77 114 105 113 130 137 159 165 159 161 169 174 178
44 33 36 44 47 58 70 67 59 46 41 29 23 41 46 45 48 63 51 33 41 44 37 23 31 72 74 67 51 30 35 49 70 122 109 116 146 103 164 167 172 158 163 178
145 162 160 148 110 76 51 26 23 70 356 30 34 19 64 56 29 75 67 58 49 51 27 51 33 37 35 82 71 37 41 18 16 83 93 113 96 76 89 127 140 158 157 159
222 320 89 88 77 81 64 54 27 13 347 17 67 33 21 49 53 65 77 58 27 77 45 7 357 22 39 70 100 131 151 182 183 263 120 140 134 121 123 143 152 154 151 164
99 92 87 71 60 71 85 76 66 56 32 44 63 93 74 91 59 100 83 73 12 75 92 41 55 51 21 14 29 187 174 195 223 179 132 141 123 110 151 159 158 151 147 169
52 50 68 101 100 70 67 58 57 50 52 50 41 54 58 35 65 66 60 95 50 69 55 49 45 33 12 19 332 203 159 158 156 141 131 136 145 149 163 142 160 174 165 178
30 50 32 10 64 59 57 47 48 62 49 55 45 48 73 76 83 93 68 15 79 85 73 45 25 40 9 356 350 357 50 97 169 156 168 154 152 151 162 163 171 159 157 184
52 50 353 12 42 34 56 37 17 12 51 48 28 62 120 78 52 109 133 122 100 93 123 72 34 18 12 334 329 333 52 34 49 56 52 64 169 170 166 183 187 181 195 209
80 89 15 31 37 28 24 66 28 34 26 20 17 12 21 58 101 30 111 72 36 23 303 118 67 8 353 340 358 345 25 76 102 96 92 79 39 58 141 145 173 199 201 188
36 47 54 46 35 20 14 6 28 30 15 25 22 12 351 349 43 64 49 57 40 48 35 8 7 23 15 20 52 25 46 41 32 21 32 21 18 16 359 313 123 137 177 224
49 49 48 44 29 5 356 23 12 4 35 23 357 341 359 11 42 44 26 40 35 62 78 35 29 44 44 32 30 53 46 38 33 48 50 36 35 42 38 47 52 57 56 44